Content
SEND FEEDBACK

Daily
Averages
Monthly
Summary
Czech Republic

PRAGUE, CZECH REPUBLIC


Home > Europe > Czech Republic
Elevation: 1184 feet     Latitude: 50 06N     Longitude: 014 15E

WEATHER
 
SELECT A DAY
Number of Records: 319,846;   Date Range: 7/1/96 - 7/11/14
 
SHARE

PRINT THIS DATA

[ ← Previous Day ]
WEATHER ALMANAC - FEBRUARY 19, 2013
[ Next Day → ]
[ °C ]   °F
Weather ElementAverageHighLow
Temperature30.5 °F32 °F (4:30 am)28.4 °F (7:37 am)
Dewpoint27.5 °F30.2 °F (1:00 pm)24.8 °F (1:30 am)
Humidity88.4 %100 % (1:00 pm)75 % (4:30 am)
Barometer29.88 in30.11 in (1:00 am)29.77 in (2:00 pm)
Wind Speed13.7 mph19.6 mph (11:30 am)
Weather ElementAverage
Visibility3.6 mi
Wind DirectionWSW (259.7 °)

Weather ElementTotal
Precipitation---
Heating Degree Days34.8 (Base 65)
Averaged from 64 records on February 19, 2013
WEATHER CONDITIONS BREAKOUT
WIND DIRECTION BREAKOUT
WEATHER BY HOUR - FEBRUARY 19, 2013
[ °C ]   °F
Local TimeTemperatureDewpointHumidityBarometerVisibilityWind DirectionWind SpeedGust SpeedPrecipitationEventsConditions
12:30 AM30.2 °F28.4 °F93 %30.04 in4.3 miWest (260°)3.5 mphOvercast
1:00 AM30.0 °F26.0 °F79 %30.11 in6.0 miWest (260°)6.7 mphMist
1:00 AM30.2 °F26.6 °F86 %30.04 in5.6 miWSW (250°)6.9 mphOvercast
1:30 AM30.2 °F24.8 °F80 %30.04 in6.2 miWSW (250°)9.2 mphOvercast
2:00 AM30.2 °F24.8 °F80 %30.01 in6.2 miSW (230°)9.2 mphOvercast
2:30 AM30.2 °F26.6 °F86 %30.01 in6.2 miSW (220°)8.1 mphOvercast
3:00 AM30.2 °F26.6 °F86 %29.98 in6.2 miSW (230°)9.2 mphOvercast
3:30 AM30.2 °F24.8 °F80 %29.98 in6.2 miSW (230°)11.5 mphOvercast
4:00 AM30.2 °F24.8 °F80 %29.95 in6.2 miSW (230°)12.7 mphOvercast
4:30 AM32.0 °F24.8 °F75 %29.95 in6.2 miSW (230°)15.0 mphOvercast
5:00 AM32.0 °F24.8 °F75 %29.95 in6.2 miSW (220°)12.7 mphOvercast
5:30 AM32.0 °F24.8 °F75 %29.92 in6.2 miSW (230°)15.0 mphMostly Cloudy
6:00 AM30.2 °F24.8 °F80 %29.92 in5.0 miSW (230°)16.1 mphSnowLight Snow
6:30 AM30.2 °F26.6 °F86 %29.89 in5.6 miSW (230°)17.3 mphSnowLight Snow
7:00 AM30.0 °F26.0 °F78 %29.97 in2.0 miWSW (240°)13.4 mphSnowLight Snow
7:00 AM30.2 °F26.6 °F86 %29.89 in2.8 miWSW (240°)17.3 mphSnowLight Snow
7:05 AM30.2 °F26.6 °F86 %29.89 in1.6 miWSW (240°)16.1 mphSnowLight Snow
7:23 AM30.2 °F26.6 °F86 %29.89 in0.9 miWSW (240°)17.3 mphSnowSnow
7:30 AM30.2 °F26.6 °F86 %29.89 in0.9 miWSW (240°)17.3 mphSnowSnow
7:37 AM28.4 °F26.6 °F93 %29.89 in0.9 miSW (230°)17.3 mphSnowSnow
8:00 AM30.2 °F26.6 °F86 %29.89 in0.9 miSW (230°)16.1 mphSnowSnow
8:07 AM30.2 °F26.6 °F86 %29.89 in1.0 miSW (230°)16.1 mphSnowSnow
8:30 AM30.2 °F26.6 °F86 %29.89 in0.9 miSW (230°)17.3 mphSnowSnow
9:00 AM30.2 °F28.4 °F93 %29.86 in1.1 miSW (230°)18.4 mphSnowSnow
9:30 AM30.2 °F28.4 °F93 %29.86 in1.1 miWSW (240°)18.4 mphSnowSnow
9:55 AM30.2 °F28.4 °F93 %29.86 in1.1 miWSW (240°)18.4 mphSnowSnow
10:00 AM30.2 °F28.4 °F93 %29.86 in1.1 miWSW (240°)18.4 mphSnowSnow
10:30 AM30.2 °F28.4 °F93 %29.83 in1.4 miWSW (240°)18.4 mphSnowSnow
10:45 AM30.2 °F28.4 °F93 %29.83 in0.9 miWSW (240°)17.3 mphSnowSnow
11:00 AM30.2 °F28.4 °F93 %29.83 in1.1 miWSW (240°)17.3 mphSnowSnow
11:30 AM30.2 °F28.4 °F93 %29.83 in1.1 miSW (230°)19.6 mphSnowSnow
12:00 PM30.2 °F28.4 °F93 %29.80 in0.6 miWSW (240°)19.6 mphSnowSnow
12:30 PM30.2 °F28.4 °F93 %29.80 in1.0 miWSW (240°)18.4 mphSnowSnow
1:00 PM31.0 °F29.0 °F90 %29.87 in1.0 miWSW (250°)17.9 mphSnowSnow
1:00 PM30.2 °F30.2 °F100 %29.80 in1.0 miWSW (240°)18.4 mphSnowSnow
1:30 PM32.0 °F30.2 °F93 %29.80 inWSW (240°)17.3 mphSnowLight Snow
1:47 PM32.0 °F30.2 °F93 %29.80 in1.7 miWSW (250°)16.1 mphSnowLight Snow
2:00 PM32.0 °F30.2 °F93 %29.77 in1.4 miWSW (240°)16.1 mphSnowLight Snow
2:30 PM32.0 °F30.2 °F93 %29.77 in0.9 miWSW (250°)17.3 mphSnowLight Snow
2:43 PM32.0 °F30.2 °F93 %29.77 in0.9 miWSW (250°)16.1 mphSnowSnow
3:00 PM32.0 °F30.2 °F93 %29.77 in0.8 miWSW (250°)15.0 mphSnowSnow
3:11 PM32.0 °F30.2 °F93 %29.77 in0.7 miWSW (250°)12.7 mphSnowSnow
3:30 PM32.0 °F30.2 °F93 %29.77 in1.4 miWest (260°)11.5 mphSnowLight Snow
3:48 PM32.0 °F30.2 °F93 %29.77 in0.9 miWest (260°)12.7 mphSnowLight Snow
4:00 PM32.0 °F30.2 °F93 %29.77 in0.9 miWest (270°)12.7 mphSnowSnow
4:30 PM32.0 °F30.2 °F93 %29.77 in1.1 miWest (280°)13.8 mphSnowLight Snow
4:37 PM32.0 °F30.2 °F93 %29.77 inWest (280°)13.8 mphSnowLight Snow
5:00 PM32.0 °F30.2 °F93 %29.80 in6.2 miWNW (290°)12.7 mphSnowLight Snow
5:30 PM32.0 °F30.2 °F93 %29.80 in6.2 miWNW (300°)13.8 mphSnowLight Snow
6:00 PM32.0 °F28.4 °F87 %29.83 in6.2 miNW (310°)11.5 mphSnowLight Snow
6:30 PM30.2 °F28.4 °F93 %29.83 in6.2 miNW (320°)10.4 mphSnowLight Snow
7:00 PM30.0 °F28.0 °F87 %29.92 in6.0 miNNW (330°)13.4 mphSnowLight Snow
7:00 PM30.2 °F28.4 °F93 %29.86 in6.2 miNW (310°)11.5 mphSnowLight Snow
7:20 PM30.2 °F28.4 °F93 %29.86 in6.2 miNW (320°)9.2 mphSnowLight Snow
7:30 PM30.2 °F28.4 °F93 %29.86 in6.2 miNW (320°)10.4 mphSnowLight Snow
8:00 PM30.2 °F26.6 °F86 %29.86 in6.2 miNNW (330°)12.7 mphOvercast
8:30 PM30.2 °F26.6 °F86 %29.86 in6.2 miNW (320°)8.1 mphOvercast
9:00 PM28.4 °F24.8 °F86 %29.89 in6.2 miNW (310°)9.2 mphMostly Cloudy
9:30 PM28.4 °F24.8 °F86 %29.89 in6.2 miWNW (300°)10.4 mphPartly Cloudy
10:00 PM28.4 °F24.8 °F86 %29.89 in6.2 miNW (310°)10.4 mphSnowLight Snow Showers
10:30 PM28.4 °F24.8 °F86 %29.89 in6.2 miWNW (300°)9.2 mphSnowLight Snow Showers
11:00 PM28.4 °F24.8 °F86 %29.92 in6.2 miWNW (300°)10.4 mphPartly Cloudy
11:30 PM28.4 °F24.8 °F86 %29.92 in6.2 miWNW (290°)8.1 mphPartly Cloudy
11:40 PM28.4 °F24.8 °F86 %29.92 in6.2 miWNW (290°)9.2 mphSnowLight Snow Showers
Hourly data recorded from LKPR, located miles away from Prague, Czech Republic







STORIES FROM OUR PARTNERS